User: anonymous   Login
Location: NJAA Observatory
(40.6819°N, 74.8979°W)
Time: 03:11:57
(UTC-05:00)
Language:

Iridium 84 - Orbit

View from above orbital plane
View from above orbital plane
View from above satellite
View from above satellite

Ground track
Ground track

The orbit data is extracted from the following two-line orbital elements,

1 25530U 98066D   16038.50932238  .00000062  00000-0  15053-4 0  9990
2 25530  86.3971 197.1611 0002041  93.1844 266.9586 14.34216531905953
Epoch (UTC): 07 February 2016 12:13:25
Eccentricity: 0.0002041
inclination: 86.3971°
perigee height: 776 km
apogee height: 779 km
right ascension of ascending node: 197.1611°
argument of perigee: 93.1844°
revolutions per day: 14.34216531
mean anomaly at epoch: 266.9586°
orbit number at epoch: 90595

The dashed part of the orbit path shows where the satellite is in the earth's shadow,  

DLR